Weather History for PAKW - January, 2013

Change the Weather History Date:

Wednesday, January 16, 2013

  Actual Average Record
Temperature  
Mean Temperature 42 °F -  
Max Temperature 45 °F 37 °F 48 °F (2014)
Min Temperature 41 °F 29 °F 7 °F (2012)
Degree Days  
Heating Degree Days 22    
Moisture  
Dew Point 41 °F    
Average Humidity 92    
Maximum Humidity 100    
Minimum Humidity 87    
Precipitation  
Precipitation 0.34 in - - ()
Sea Level Pressure  
Sea Level Pressure 30.22 in    
Wind  
Wind Speed 5 mph (SSW)    
Max Wind Speed 13 mph    
Max Gust Speed 21 mph    
Visibility 8 miles    
Events Rain    
Averages and records for this station are not official NWS values.
T = Trace of Precipitation, MM = Missing Value Source: NWS Daily Summary

Daily Weather History Graph

Daily Weather History Graph

Search for Another Location

Airport or City:

Trip Planner

Search our weather history database for the weather conditions in past years. The results will help you decide how hot, cold, wet, or windy it might be!

Date:

Astronomy

Jan. 16, 2013 Rise Set
Actual Time 8:09 AM AKST 3:55 PM AKST
Civil Twilight 7:25 AM AKST 4:39 PM AKST
Nautical Twilight 6:39 AM AKST 5:25 PM AKST
Astronomical Twilight 5:55 AM AKST 6:09 PM AKST
Moon 9:41 AM AKST (1/16) 11:09 PM AKST (1/16)
Length of Visible Light 9h 13m
Length of Day
7h 46m
Waxing Crescent, 29% of the Moon is Illuminated
Jan 16
Waxing Crescent
Jan 18
First Quarter
Jan 26
Full
Feb 3
Last Quarter
Feb 9
New

Hourly Weather History & Observations

Time (AKST) Temp. Windchill Dew Point Humidity Pressure Visibility Wind Dir Wind Speed Gust Speed Precip Events Conditions
12:53 AM 42.1 °F 40.2 °F 41.0 °F 96% 30.41 in 10.0 mi South 3.5 mph - N/A   Overcast
1:07 AM 42.8 °F 41.1 °F 41.0 °F 93% 30.41 in 9.0 mi SSW 3.5 mph - N/A   Overcast
1:51 AM 42.8 °F 40.1 °F 39.2 °F 87% 30.40 in 10.0 mi SSW 4.6 mph - N/A   Overcast
1:53 AM 42.1 °F 38.4 °F 39.9 °F 92% 30.41 in 10.0 mi South 5.8 mph - N/A   Overcast
2:07 AM 42.8 °F 40.1 °F 39.2 °F 87% 30.40 in 10.0 mi Variable 4.6 mph - N/A   Overcast
3:38 AM 42.8 °F 41.1 °F 39.2 °F 87% 30.38 in 10.0 mi Variable 3.5 mph - N/A   Overcast
3:53 AM 41.0 °F 37.1 °F 39.0 °F 93% 30.39 in 10.0 mi SSW 5.8 mph - N/A   Overcast
4:53 AM 41.0 °F 38.0 °F 39.0 °F 93% 30.38 in 10.0 mi SSW 4.6 mph - N/A   Overcast
5:53 AM 41.0 °F - 39.0 °F 93% 30.38 in 10.0 mi Calm Calm - N/A   Overcast
6:53 AM 41.0 °F 39.0 °F 39.0 °F 93% 30.39 in 10.0 mi SSW 3.5 mph - N/A   Overcast
7:53 AM 41.0 °F - 39.0 °F 93% 30.37 in 10.0 mi Calm Calm - N/A   Overcast
8:49 AM 41.0 °F 39.0 °F 39.2 °F 93% 30.34 in 10.0 mi SSW 3.5 mph - N/A   Overcast
8:53 AM 41.0 °F 38.0 °F 39.0 °F 93% 30.34 in 10.0 mi Variable 4.6 mph - N/A   Overcast
9:53 AM 41.0 °F - 39.0 °F 93% 30.32 in 10.0 mi Calm Calm - N/A   Overcast
10:25 AM 41.0 °F 38.0 °F 39.2 °F 93% 30.29 in 5.0 mi Variable 4.6 mph - 0.01 in Rain Light Rain
11:23 AM 41.0 °F 38.0 °F 39.2 °F 93% 30.27 in 8.0 mi Variable 4.6 mph - 0.00 in Rain Light Rain
11:53 AM 42.1 °F 38.4 °F 39.0 °F 89% 30.25 in 8.0 mi Variable 5.8 mph - 0.00 in Rain Light Rain
12:53 PM 42.1 °F 37.7 °F 39.9 °F 92% 30.20 in 5.0 mi Variable 6.9 mph - 0.01 in Rain Light Rain
1:53 PM 43.0 °F 38.2 °F 41.0 °F 93% 30.17 in 5.0 mi South 8.1 mph 20.7 mph 0.00 in Rain Light Rain
2:27 PM 42.8 °F 37.5 °F 41.0 °F 93% 30.14 in 2.5 mi SSE 9.2 mph 19.6 mph 0.00 in Rain Light Rain
2:53 PM 43.0 °F 37.2 °F 41.0 °F 93% 30.14 in 2.5 mi South 10.4 mph 16.1 mph 0.01 in Rain Light Rain
3:16 PM 42.8 °F 36.2 °F 42.8 °F 100% 30.14 in 2.5 mi SSW 12.7 mph 18.4 mph 0.00 in Rain Light Rain
3:36 PM 42.8 °F 38.6 °F 42.8 °F 100% 30.14 in 5.0 mi Variable 6.9 mph - 0.02 in Rain Light Rain
3:53 PM 44.1 °F 39.5 °F 42.1 °F 93% 30.13 in 5.0 mi South 8.1 mph - 0.03 in Rain Light Rain
4:20 PM 44.6 °F 39.2 °F 42.8 °F 93% 30.11 in 6.0 mi SSW 10.4 mph 16.1 mph 0.02 in Rain Light Rain
4:48 PM 44.6 °F 40.2 °F 42.8 °F 93% 30.10 in 8.0 mi South 8.1 mph - 0.03 in Rain Light Rain
4:53 PM 44.1 °F 40.8 °F 42.1 °F 93% 30.10 in 7.0 mi South 5.8 mph - 0.03 in Rain Light Rain
5:53 PM 44.1 °F 39.5 °F 42.1 °F 93% 30.08 in 8.0 mi SSW 8.1 mph - 0.09 in Rain Light Rain
6:53 PM 44.1 °F 38.6 °F 42.1 °F 93% 30.07 in 8.0 mi SSW 10.4 mph - 0.08 in Rain Light Rain
7:53 PM 44.1 °F 40.8 °F 41.0 °F 89% 30.05 in 7.0 mi South 5.8 mph - 0.06 in Rain Light Rain
8:53 PM 44.1 °F 39.5 °F 41.0 °F 89% 30.02 in 7.0 mi South 8.1 mph 19.6 mph 0.01 in Rain Light Rain
9:53 PM 44.1 °F 40.1 °F 42.1 °F 93% 30.00 in 10.0 mi Variable 6.9 mph - 0.01 in   Overcast
10:53 PM 44.1 °F 40.1 °F 42.1 °F 93% 29.97 in 10.0 mi Variable 6.9 mph - 0.00 in   Overcast
11:53 PM 45.0 °F 40.1 °F 42.1 °F 90% 29.93 in 7.0 mi South 9.2 mph - 0.01 in Rain Light Rain